Temp
28 28 29 30 29 27 28 28 25 26 30 28 23 22 24 23 22 23 23 23 26 29 31 34 34 34 35 35 35 35 36 36 36 36 36 36 36 36 35 34 33 32 32 32 31 31 30 30 29 29 29 28 28 27 27 26 26 25 25 24 24 24 24
27 28 28 30 30 29 28 25 26 29 31 29 25 22 22 22 22 23 23 23 24 24 26 32 34 34 34 35 35 36 36 36 36 36 36 36 36 36 35 35 33 33 32 32 32 31 31 30 30 29 29 28 28 27 27 26 26 26 25 25 25 25 24
26 27 27 26 29 30 29 28 30 29 25 24 24 22 22 22 22 22 23 23 23 23 25 31 33 34 35 35 35 36 36 37 37 37 37 36 36 36 36 35 34 33 33 33 32 32 32 31 30 29 29 28 28 28 27 27 27 26 26 26 25 25 25
26 26 25 24 25 28 29 29 31 30 26 24 24 23 23 22 22 22 22 23 23 25 29 32 33 35 35 35 35 36 36 37 37 37 37 37 36 36 36 36 35 34 33 34 33 32 32 32 30 30 29 29 29 28 28 28 27 27 26 26 26 25 25
24 23 25 25 25 27 27 26 26 27 27 27 26 25 24 23 22 22 23 22 23 29 34 35 35 35 35 35 36 36 36 37 38 38 38 37 37 37 37 37 36 35 34 34 34 33 33 32 31 31 30 30 30 29 29 28 28 28 27 27 26 26 26
22 23 26 28 28 28 27 26 25 26 26 25 24 23 24 24 23 22 23 22 23 31 36 35 35 36 35 36 36 36 37 37 38 38 38 38 37 37 37 37 37 36 35 35 35 33 33 33 32 31 31 31 30 30 29 29 29 28 28 28 27 26 26
22 24 27 27 26 27 27 26 28 29 28 25 22 22 23 23 23 23 23 22 25 33 36 34 35 36 36 37 36 36 37 37 38 38 38 38 38 37 37 38 38 37 36 35 35 34 33 33 32 32 31 31 31 31 30 30 30 29 29 29 28 27 26
22 23 25 26 26 26 25 26 28 29 28 27 26 25 24 24 23 23 23 21 25 33 35 34 35 36 36 37 36 36 37 37 38 38 38 38 37 37 38 38 38 38 36 35 35 34 33 33 32 32 32 32 31 31 31 31 30 30 30 29 28 27 27
21 21 23 24 25 25 25 26 28 28 29 29 27 26 25 23 22 23 23 21 25 32 35 34 34 35 35 36 36 36 37 37 38 38 38 38 37 36 37 38 38 37 36 35 34 33 33 32 32 32 32 32 32 31 31 31 31 31 30 30 29 28 27
20 20 20 21 22 23 24 26 28 27 27 27 26 24 23 22 23 23 23 22 26 32 34 33 34 35 35 36 36 36 37 36 36 36 36 36 36 35 36 36 36 36 36 34 33 33 33 32 33 32 31 32 32 32 32 31 31 31 30 30 30 29 28
18 19 19 19 20 21 22 24 25 26 26 27 26 23 22 23 23 22 24 25 26 30 33 33 34 35 34 35 34 34 34 34 34 34 34 34 35 34 34 35 35 35 35 34 33 32 33 33 33 32 32 32 32 32 32 32 31 31 30 30 30 29 28
17 18 18 19 20 20 20 22 23 24 25 25 24 23 23 25 23 21 25 27 25 28 33 33 32 32 32 32 32 32 32 32 33 33 32 33 34 34 34 34 34 34 34 33 32 32 33 33 33 32 32 32 32 32 31 31 31 31 31 30 30 29 29
17 18 19 19 20 20 20 21 21 22 23 24 23 23 25 26 23 22 26 27 26 29 33 31 30 30 30 30 30 31 31 31 31 31 32 33 35 35 35 34 33 33 33 33 32 31 32 33 33 33 32 32 32 32 31 31 31 31 31 30 30 29 29
17 18 19 19 20 20 20 21 21 22 23 23 24 24 26 26 24 25 27 27 27 30 30 29 29 29 30 30 30 30 30 30 30 30 31 32 33 34 34 34 34 33 33 32 32 31 32 33 33 33 32 32 32 32 31 31 31 31 31 30 30 29 29
16 17 18 19 20 20 20 20 21 22 22 23 24 25 26 26 25 27 27 25 27 28 26 26 28 29 30 30 29 29 29 28 28 29 30 30 30 31 32 33 33 34 33 33 32 31 31 32 33 33 32 32 32 32 32 31 31 31 31 30 29 29 29
15 17 18 19 20 21 20 20 21 22 22 23 23 24 25 24 24 25 25 24 26 26 24 25 28 29 29 29 29 28 27 27 27 27 27 28 28 29 30 30 31 32 33 34 33 32 32 33 33 33 32 32 32 32 32 31 31 31 31 30 29 29 29
15 17 18 19 20 19 20 21 22 22 23 23 22 21 22 23 23 23 23 23 24 23 22 24 26 28 28 28 27 26 25 24 25 25 25 26 27 28 29 29 30 31 32 34 34 33 33 33 33 33 32 32 32 32 32 31 31 31 31 30 29 29 29
14 16 17 18 18 17 20 23 24 24 24 23 21 21 22 22 22 22 22 22 21 20 20 22 24 25 26 27 26 25 24 23 23 23 24 24 25 26 27 29 30 30 31 33 34 34 34 33 33 33 33 32 32 32 32 31 31 31 31 30 29 28 28
14 16 16 15 16 18 21 23 23 24 25 23 20 20 21 21 20 20 21 20 19 19 19 21 22 24 25 26 25 24 23 22 22 23 23 23 24 24 26 28 29 29 30 31 34 35 34 34 34 33 33 32 32 32 32 31 31 31 30 30 29 28 28
14 15 14 15 17 19 20 20 19 21 22 22 20 19 18 18 19 19 19 19 18 18 19 21 22 24 25 26 25 23 22 22 21 22 22 22 23 23 25 27 28 28 29 31 33 35 34 34 34 33 33 33 32 32 32 31 31 30 30 29 29 28 28
14 14 15 16 17 18 17 16 16 17 18 18 19 18 17 17 18 18 17 17 16 16 18 20 22 23 25 26 25 22 21 21 20 20 21 21 21 23 25 27 28 29 30 31 33 34 34 34 34 34 33 33 33 33 32 31 31 30 30 29 29 28 28
14 14 14 15 16 17 16 15 14 15 16 16 17 18 17 16 17 17 17 16 15 15 17 19 21 23 25 27 25 21 19 19 19 19 20 20 21 23 26 28 29 30 31 32 33 34 34 34 34 34 33 33 32 32 32 32 31 30 30 29 29 28 28
14 14 13 13 16 16 15 14 13 14 15 15 16 18 17 16 16 17 16 15 14 14 15 17 20 23 25 25 21 18 17 17 17 18 18 19 21 24 27 29 29 30 31 32 33 33 33 33 34 33 33 32 32 32 32 31 31 30 30 29 29 28 28
14 13 13 14 16 16 14 13 13 13 13 14 15 18 17 15 15 16 15 14 13 13 14 16 17 18 19 19 17 16 16 16 17 17 18 18 20 24 26 28 28 29 30 31 33 33 33 33 33 33 32 32 32 31 31 31 31 30 30 29 29 29 28
14 13 13 14 16 15 13 14 14 12 13 15 16 16 15 14 15 15 14 14 13 13 14 15 15 15 15 15 16 16 16 16 16 17 17 18 20 23 25 27 27 28 30 31 32 33 33 33 33 32 32 32 32 31 31 31 31 31 30 30 29 29 29
14 14 13 14 15 14 13 14 14 13 13 15 14 13 13 14 14 14 14 13 13 13 13 14 14 14 15 15 15 15 16 16 16 16 17 18 20 21 23 25 27 29 31 31 32 33 33 32 32 32 32 32 31 30 31 31 31 31 30 30 29 29 28
13 13 13 13 13 13 12 13 13 12 12 12 11 12 13 14 14 14 14 13 13 13 13 13 13 14 14 15 15 15 15 15 15 16 17 17 18 20 22 24 26 28 30 30 31 33 32 32 32 32 32 31 30 30 30 31 31 31 30 29 29 28 28
12 12 12 12 12 12 12 12 11 11 11 10 11 12 13 14 14 13 13 13 12 12 12 12 13 13 13 14 14 14 15 15 15 16 16 17 18 19 20 23 24 27 28 29 30 32 32 32 32 32 31 30 30 30 30 30 30 31 30 29 29 28 28
10 11 11 11 11 12 12 12 11 11 11 11 11 12 12 14 14 14 12 12 12 12 12 12 13 13 13 13 13 14 15 15 15 15 16 16 17 18 19 21 22 26 28 28 29 31 31 31 31 31 31 30 29 29 30 30 30 30 29 29 28 28 28
10 10 11 12 12 12 11 11 11 11 11 11 11 11 12 13 14 14 13 12 11 12 12 12 12 12 13 13 13 14 14 14 15 15 16 16 17 17 18 19 21 24 27 28 28 29 29 30 30 30 30 30 29 29 29 29 29 30 29 28 28 28 28
10 11 11 12 11 11 11 11 11 11 11 10 10 11 11 12 13 14 14 13 12 12 12 12 12 13 13 13 13 13 14 14 15 15 15 16 16 16 17 18 19 22 25 27 28 27 28 28 29 29 29 29 29 29 28 29 29 29 28 28 28 28 28
10 11 11 11 11 12 12 10 10 11 11 10 10 11 11 12 13 14 14 13 13 12 12 12 12 13 13 13 13 13 13 14 14 14 15 16 16 16 16 17 19 20 23 24 26 26 27 27 27 27 28 28 28 28 28 28 28 28 28 28 28 28 28
11 11 11 10 11 12 11 11 10 11 11 10 10 11 11 12 12 13 14 14 13 12 12 13 12 13 13 13 13 13 13 14 14 14 15 15 15 16 16 17 18 20 21 22 24 25 25 26 26 26 26 27 27 27 27 28 28 28 28 28 28 28 29
10 10 9 9 9 10 10 10 10 10 10 10 10 10 11 11 12 12 13 13 13 13 13 13 13 13 13 13 13 13 13 14 14 14 14 15 15 16 16 16 17 19 20 21 22 24 24 25 26 26 26 26 26 27 27 27 27 28 28 28 28 29 29
9 9 9 9 9 9 9 10 10 10 10 10 10 10 10 11 12 12 12 13 12 12 12 13 13 13 13 13 13 13 13 14 14 14 14 15 15 16 16 16 16 18 20 21 22 23 24 24 25 25 25 26 26 26 26 26 27 27 28 28 28 29 29
9 9 9 9 9 9 9 10 10 10 10 10 9 10 10 11 11 12 12 12 12 12 12 13 13 13 13 13 13 13 13 13 14 14 14 15 16 16 16 16 16 17 19 21 22 22 23 24 24 25 25 25 25 25 25 26 26 27 27 28 29 29 29
10 9 9 9 9 9 10 10 10 10 10 10 9 10 10 11 11 12 12 12 12 12 11 12 12 13 14 14 13 13 13 13 13 13 14 15 16 16 15 16 16 16 18 20 22 22 23 24 24 24 24 24 24 24 25 25 26 26 26 27 28 29 29
Height
724 726 723 719 728 733 729 732 741 736 726 730 743 746 734 736 751 741 728 731 723 715 712 701 700 703 698 699 700 700 702 699 701 704 702 703 704 705 708 712 715 717 720 724 728 732 736 740 745 748 752 756 760 764 768 771 776 780 784 788 792 796 800
728 724 725 719 718 720 725 732 731 725 725 729 738 751 748 749 759 742 724 729 727 728 725 703 698 706 701 697 697 696 696 697 699 700 699 700 699 700 703 705 709 712 715 719 722 726 730 733 737 742 747 752 756 760 764 767 771 775 779 784 788 792 796
732 726 733 733 722 716 719 719 714 720 739 743 740 751 755 753 757 744 730 726 722 722 718 702 699 703 698 696 694 693 692 691 694 695 695 696 696 697 699 701 705 708 710 714 717 721 724 728 733 737 743 748 752 756 759 763 767 770 775 780 785 789 792
736 733 736 741 732 722 720 718 712 713 724 733 734 738 742 745 749 744 735 730 722 711 700 696 698 695 693 695 693 690 689 685 686 688 688 691 693 695 696 697 700 702 704 707 710 715 718 723 729 733 739 743 747 751 755 759 764 768 772 776 780 784 787
742 744 735 732 728 723 724 728 726 720 715 717 723 726 726 733 741 740 738 735 718 694 684 687 690 688 688 689 689 687 684 681 680 680 682 685 687 689 690 692 694 695 698 700 704 709 713 719 725 729 733 737 742 746 750 754 759 763 767 770 774 779 782
748 740 724 719 719 717 720 723 721 720 717 719 731 734 720 718 729 730 733 736 712 682 676 680 681 683 682 681 683 684 680 678 676 674 676 679 682 684 685 686 687 689 692 695 699 705 710 715 720 724 728 732 736 741 744 749 754 758 762 765 769 774 778
748 733 719 719 720 717 720 720 712 711 713 715 728 735 719 714 721 718 722 732 711 679 674 678 676 677 676 674 677 678 676 674 673 672 672 673 676 678 679 679 680 682 686 690 694 700 706 710 713 718 722 726 730 734 739 744 748 751 756 760 765 769 773
749 738 726 721 721 721 724 720 709 707 708 706 711 718 714 714 716 714 726 738 715 682 674 677 676 674 674 673 673 674 674 671 668 669 669 670 673 675 674 675 675 677 682 687 692 697 702 705 709 714 717 721 725 729 734 738 741 746 751 756 761 765 768
759 749 740 731 725 725 724 716 708 706 705 705 711 716 719 722 714 707 723 733 711 684 676 678 678 677 676 674 671 672 673 671 667 666 666 667 671 673 673 673 674 677 681 685 689 693 697 702 705 709 713 717 721 725 728 732 736 742 747 752 756 760 764
764 754 753 748 739 734 726 713 709 712 711 713 717 719 725 731 720 708 713 716 699 682 680 682 681 678 676 673 670 670 671 672 671 670 670 670 672 675 676 675 676 678 680 683 687 689 694 698 701 705 709 712 716 720 723 728 733 738 742 747 751 755 760
766 759 762 757 750 748 739 724 719 719 716 715 716 721 725 723 721 718 710 704 698 689 684 684 681 679 678 677 677 677 677 677 676 676 677 676 675 677 677 677 678 680 681 684 686 688 691 693 697 700 704 708 712 716 720 724 729 734 738 743 747 751 755
770 762 763 758 755 755 749 740 736 727 721 719 719 723 719 714 723 726 708 701 705 695 684 685 685 684 686 686 685 685 683 681 679 678 679 678 677 676 676 677 678 680 682 683 684 686 688 691 695 698 701 704 708 711 716 720 725 729 734 738 742 746 750
771 762 759 756 756 754 748 746 744 734 728 726 723 720 713 709 723 723 705 704 708 694 685 690 690 688 689 688 687 685 683 682 681 681 681 678 676 675 676 677 678 678 680 681 682 684 686 689 692 695 699 702 705 709 713 717 721 725 730 734 738 742 746
771 764 758 755 754 752 747 744 740 734 730 726 722 719 712 709 715 712 705 708 706 695 693 696 692 687 685 683 684 683 684 685 684 684 682 679 678 678 677 676 676 676 677 678 679 681 683 685 688 692 696 699 702 706 709 713 717 721 726 730 734 738 741
774 766 759 753 750 748 746 742 736 731 729 725 720 715 711 711 712 708 710 714 705 697 700 699 692 688 684 684 686 686 687 688 687 686 685 683 682 682 679 677 676 675 675 675 677 678 680 682 684 687 691 694 698 702 705 709 713 716 721 726 729 733 737
775 765 760 752 743 740 740 738 734 731 727 723 719 715 713 713 713 712 715 715 707 703 707 704 696 691 689 690 690 690 691 692 692 692 689 687 685 683 680 679 677 676 674 673 674 674 674 676 680 683 687 690 694 698 701 705 709 713 717 721 725 730 734
775 765 758 749 744 747 741 728 724 725 721 719 723 725 721 718 719 720 719 716 713 715 716 711 704 699 696 696 695 696 698 698 697 696 694 691 687 683 680 679 676 675 672 669 668 668 669 671 675 678 681 685 688 692 696 701 705 710 713 717 722 727 731
780 767 758 755 757 755 736 712 708 711 711 718 728 730 725 723 724 724 721 720 723 725 722 718 713 708 703 700 700 701 702 703 702 700 697 694 690 686 682 678 674 672 669 666 663 663 665 667 669 673 677 681 685 690 695 699 703 707 711 715 719 723 727
779 769 767 770 763 744 721 709 708 704 702 714 727 730 728 728 728 727 725 726 728 729 726 720 715 711 705 701 701 703 704 705 705 703 700 697 694 690 684 679 674 671 668 664 661 660 662 664 667 672 676 679 684 688 692 696 700 704 708 712 716 720 724
779 775 775 770 752 732 721 722 723 717 712 717 728 736 738 736 733 733 732 732 732 731 727 719 713 709 703 700 703 705 705 705 705 705 703 699 696 691 685 678 674 669 665 661 657 657 659 662 665 668 671 676 680 684 688 693 697 701 706 710 713 717 720
777 775 770 759 745 738 739 741 740 738 734 732 733 740 744 740 736 736 736 737 738 735 728 719 712 706 703 701 703 705 706 708 707 705 703 700 695 689 681 675 670 665 661 657 654 654 657 659 662 664 668 672 677 681 685 690 694 699 703 706 710 713 716
773 774 773 765 753 745 746 748 748 746 743 740 737 739 743 742 738 737 737 739 741 739 732 723 713 706 703 703 704 708 711 711 708 705 702 698 692 685 676 670 666 660 656 653 652 652 654 656 658 662 666 670 674 678 682 686 691 695 698 702 706 709 712
772 774 777 771 757 747 748 752 752 749 746 744 741 738 740 743 741 738 739 741 744 743 737 727 717 709 706 708 713 718 718 714 712 708 703 697 691 682 673 666 662 657 653 651 650 650 652 654 656 660 664 668 671 675 679 683 688 691 694 698 701 704 708
771 773 774 765 749 746 753 755 753 752 750 749 746 741 740 743 743 741 741 743 745 745 740 734 729 725 724 726 727 726 722 718 714 711 706 700 691 681 671 665 660 657 652 650 649 649 650 653 655 658 662 665 668 672 676 681 684 687 690 694 697 701 705
768 771 773 763 748 747 755 754 752 755 753 747 745 744 745 746 745 743 744 745 746 746 742 739 738 737 737 736 732 727 724 720 715 710 706 700 690 681 673 666 661 656 651 649 649 648 649 652 655 657 660 663 666 670 674 677 679 682 687 691 696 700 703
766 767 770 764 753 753 758 755 752 754 753 750 751 753 753 750 746 745 746 746 747 746 743 742 742 740 737 734 732 729 726 722 717 711 705 699 691 684 676 667 661 656 650 649 648 648 650 653 654 656 658 661 664 668 670 673 676 680 685 690 694 697 700
767 766 769 767 761 759 760 758 756 758 761 763 764 760 753 749 748 748 747 747 748 747 745 744 743 740 737 735 732 729 725 722 718 712 706 700 693 686 678 670 663 657 652 650 648 647 650 653 653 655 658 660 663 665 667 670 675 680 684 688 691 695 698
773 770 770 772 769 765 763 762 764 767 769 770 768 761 754 750 749 750 750 749 748 748 746 745 743 741 738 735 733 729 725 721 716 711 705 700 694 687 680 672 665 659 656 654 651 648 649 652 654 656 658 660 662 664 667 671 675 679 683 686 690 693 696
781 778 776 774 771 768 765 765 767 769 769 768 767 763 758 752 749 750 752 751 750 748 747 745 743 741 740 737 733 730 725 720 716 710 705 700 695 689 682 675 668 661 657 656 654 651 651 653 655 657 659 661 664 666 669 672 675 678 682 686 689 692 695
781 780 776 772 769 767 767 767 768 768 768 768 767 764 759 755 751 750 750 751 750 749 747 745 743 742 740 737 734 729 725 721 716 710 705 699 694 689 683 677 671 664 659 658 657 656 655 655 656 658 660 662 665 667 670 673 675 678 682 685 688 691 694
781 777 772 770 769 767 767 767 767 767 767 768 768 765 761 757 753 750 748 749 749 748 746 745 743 741 739 737 734 729 725 721 716 711 706 700 695 690 685 680 674 669 664 660 659 659 659 658 659 660 661 663 666 668 670 673 676 679 682 684 687 690 692
780 775 772 772 768 763 764 768 768 767 767 767 766 764 761 757 753 749 747 747 747 746 744 743 742 739 738 737 734 730 726 722 718 713 708 702 697 692 686 681 677 673 669 665 663 662 662 661 662 663 663 665 667 669 671 674 677 679 682 684 686 689 692
777 775 775 774 769 764 764 767 768 766 766 765 764 762 760 757 753 749 746 745 746 745 743 742 740 739 737 736 734 731 727 723 719 715 710 705 700 695 689 684 680 676 673 670 668 665 664 664 664 665 666 667 668 670 673 675 677 679 682 684 686 689 691
781 780 781 780 778 773 769 767 767 767 766 764 763 761 759 755 752 749 746 744 744 743 742 740 739 738 737 735 733 731 727 724 720 717 712 707 702 698 693 687 682 678 675 673 671 669 668 667 666 666 667 669 670 673 675 676 677 679 681 684 686 688 690
787 784 783 782 781 778 773 769 768 766 764 763 762 760 757 754 751 748 746 743 742 741 740 739 738 737 736 734 733 731 728 724 721 718 714 709 705 701 696 690 685 681 678 675 673 671 670 670 669 669 670 672 674 675 676 677 678 679 681 683 685 686 689
786 783 782 781 780 777 773 770 768 766 764 763 761 758 756 753 750 748 746 743 742 740 738 737 738 736 735 734 734 732 729 725 723 719 716 712 708 704 699 694 690 685 681 679 676 675 674 673 672 672 674 675 677 678 678 679 679 680 681 683 684 685 688
784 783 782 779 777 774 771 769 768 766 764 763 760 757 755 752 749 747 745 743 741 739 738 737 737 735 734 734 734 733 730 727 725 722 718 714 710 706 701 697 692 688 685 683 681 679 677 676 676 676 677 678 679 680 680 681 682 682 682 683 683 685 687
Wind_Speed
10 14 15 17 15 10 9 12 12 12 12 11 9 9 9 8 9 8 8 9 8 6 5 7 10 11 14 18 19 19 19 17 15 13 14 15 15 16 16 16 18 20 21 23 27 28 29 31 32 34 34 34 33 32 31 32 32 32 32 32 30 29 28
10 6 9 15 17 13 9 10 12 11 13 12 9 8 8 9 10 8 9 12 11 8 7 9 15 17 16 16 18 19 20 21 19 16 14 15 16 16 17 18 19 19 20 23 27 29 31 33 35 36 36 34 33 31 31 33 33 33 33 32 30 29 29
8 4 9 13 16 18 15 10 10 12 11 11 10 8 9 11 10 8 10 13 11 9 7 5 11 18 18 17 17 17 19 20 20 19 18 17 16 15 16 17 17 17 19 23 27 30 32 34 34 34 35 33 32 32 31 32 34 34 33 32 30 30 29
7 6 10 11 12 17 18 14 11 11 11 10 10 9 8 9 9 8 10 11 9 9 10 8 8 11 14 15 15 16 18 18 17 18 18 18 18 16 15 15 16 18 20 24 29 32 32 34 33 33 34 34 33 33 32 32 32 32 32 32 32 31 30
7 7 10 13 13 14 15 14 13 11 10 10 11 11 10 9 9 8 7 8 7 5 8 11 9 8 10 12 13 13 15 16 17 17 17 17 17 17 16 15 16 19 20 24 30 32 32 32 32 32 33 34 34 32 32 33 32 33 34 34 33 32 31
8 11 13 14 14 11 10 12 15 15 12 11 12 12 13 11 9 8 7 6 4 3 4 8 9 9 10 11 12 12 13 15 15 16 17 17 16 17 18 17 18 18 19 22 27 29 29 30 30 32 33 33 33 33 33 33 33 33 34 34 33 32 31
10 15 14 12 12 11 9 10 13 16 15 13 13 13 13 12 11 10 9 8 4 3 3 4 5 6 7 9 11 11 12 14 14 15 16 16 16 16 17 18 18 17 17 20 24 27 28 30 31 33 33 33 34 35 34 33 34 35 34 34 34 32 31
11 17 19 16 14 11 10 10 10 13 16 16 12 9 8 10 13 12 8 8 7 3 3 3 3 5 6 6 7 8 9 10 12 15 17 16 16 16 17 17 16 15 16 17 19 21 25 28 30 32 32 33 33 34 33 34 35 36 35 33 33 32 32
9 11 14 14 13 10 9 12 14 13 15 15 10 6 5 7 13 15 11 9 7 4 5 6 6 9 10 8 8 8 8 8 8 9 11 13 15 15 16 16 15 15 16 16 16 17 22 27 29 30 32 32 32 33 34 34 34 35 34 33 33 33 32
9 8 6 7 8 6 8 15 18 14 13 14 11 7 8 9 12 14 12 9 7 5 6 7 7 9 11 8 6 5 4 4 3 0 1 4 7 9 11 12 13 13 14 15 16 17 22 27 29 29 31 31 31 32 34 34 33 33 34 33 33 33 32
11 8 6 7 8 7 8 12 14 12 12 13 11 9 10 11 10 12 12 10 9 7 6 6 7 6 4 1 3 4 4 4 3 3 3 1 3 5 8 9 10 11 12 14 17 18 22 27 29 30 31 32 31 32 33 33 32 33 33 33 33 33 32
18 18 16 14 13 13 12 11 11 10 9 10 13 13 14 13 9 11 14 13 13 12 6 1 0 2 5 6 6 6 6 6 5 4 1 2 4 6 8 9 11 13 14 15 17 18 21 25 27 28 30 31 31 31 32 32 32 32 33 33 33 33 32
20 22 21 17 14 14 15 14 14 13 9 10 14 15 18 17 12 11 12 10 13 15 7 5 7 8 8 7 6 6 6 7 7 6 4 2 2 4 7 10 13 14 15 16 17 18 20 24 27 27 27 28 29 29 30 31 32 32 32 33 33 32 31
18 21 22 20 17 17 17 16 16 16 13 13 13 13 16 19 16 14 11 9 9 6 3 8 9 9 9 7 7 8 9 10 10 9 9 8 6 4 3 6 11 15 16 16 18 19 19 23 26 27 26 27 29 30 31 32 32 32 32 32 33 32 32
14 17 20 20 19 18 18 17 17 17 15 15 15 14 15 17 18 17 15 15 10 2 9 10 9 9 9 9 10 10 10 12 13 12 12 11 11 10 9 7 6 11 15 17 18 18 20 23 27 28 27 28 30 30 31 32 33 33 33 33 33 33 32
10 13 17 20 19 18 19 19 18 17 16 14 10 8 9 11 14 16 15 15 11 4 11 10 8 7 8 10 11 11 11 13 14 14 14 14 13 13 11 10 10 9 12 16 18 20 22 26 29 29 28 29 29 30 31 32 33 33 33 33 33 32 30
9 11 15 16 15 15 16 15 15 16 16 10 5 4 4 4 6 10 11 8 4 8 10 9 8 8 8 8 9 10 11 13 13 14 15 15 15 15 14 13 12 13 12 13 17 21 23 27 31 32 32 31 31 32 32 32 32 33 32 32 31 30 29
8 11 13 11 12 13 10 8 11 18 18 11 9 8 7 3 1 3 3 2 7 10 9 9 9 9 9 7 6 8 9 11 12 14 15 16 16 16 16 15 14 13 13 13 16 21 25 29 32 33 33 31 30 30 30 30 31 31 31 30 30 30 30
7 10 10 9 11 10 4 2 3 11 14 12 12 8 4 2 1 2 2 3 7 9 10 10 9 9 10 7 3 8 10 11 12 14 15 16 17 17 17 16 16 15 15 15 16 20 26 28 29 30 30 29 28 28 29 30 31 30 30 29 28 29 30
6 7 8 8 5 3 0 5 9 5 6 13 12 7 5 3 2 1 2 4 7 10 11 11 10 10 10 6 4 11 14 14 14 15 15 17 17 17 17 17 17 17 17 18 18 20 24 25 27 29 30 30 29 29 29 30 30 30 29 28 28 28 30
6 7 8 8 7 6 3 3 8 8 2 2 2 2 4 3 4 3 3 5 8 11 12 12 12 11 9 9 3 12 18 17 17 17 17 18 19 18 19 19 19 20 19 20 19 20 22 24 27 28 29 29 29 28 28 28 29 30 29 28 28 29 30
6 7 7 8 10 8 4 2 7 11 9 10 11 5 3 3 5 5 4 6 9 11 12 14 14 9 9 10 2 12 20 20 20 21 20 20 19 19 19 19 19 19 17 16 18 19 22 25 27 27 28 28 28 27 28 28 28 29 29 29 29 29 29
6 7 6 6 8 4 3 7 10 12 12 13 12 7 4 2 4 5 6 7 9 10 11 13 12 5 7 5 4 13 20 20 20 20 21 21 21 21 21 18 17 18 15 14 16 18 21 24 26 27 28 29 28 27 27 28 28 28 29 29 30 29 29
8 8 6 6 6 1 8 11 12 13 13 11 7 6 5 3 4 5 7 8 8 10 10 10 9 5 2 4 8 14 18 19 19 19 19 20 21 20 20 19 17 17 14 11 14 17 21 24 26 28 29 28 27 27 27 27 27 28 29 29 29 28 27
9 9 7 7 6 2 10 13 12 10 9 6 4 3 1 4 4 5 7 8 8 9 9 7 6 6 7 8 11 15 18 18 19 20 20 23 22 19 20 20 16 13 10 11 15 17 20 24 25 27 29 27 26 27 27 27 28 28 28 27 27 25 26
7 8 7 7 5 3 12 15 10 6 4 3 0 2 3 3 5 5 6 7 8 8 8 7 6 8 10 11 13 15 17 17 18 19 20 22 21 19 20 18 14 10 7 9 14 16 19 24 26 27 28 26 26 26 27 27 28 27 25 25 25 25 26
6 7 6 6 4 5 13 14 7 6 4 3 4 5 3 3 5 6 5 6 7 8 8 8 9 11 12 13 14 15 16 17 17 18 18 18 18 18 18 17 14 9 5 5 10 15 19 22 24 25 26 25 24 26 26 26 25 24 23 24 25 25 25
3 5 4 3 4 7 12 9 4 4 4 4 6 7 5 4 5 6 5 6 7 8 9 10 11 11 12 13 15 15 16 17 17 17 18 17 17 19 18 18 18 12 4 3 5 10 17 19 20 22 23 23 22 23 23 22 22 22 22 23 24 23 24
2 2 2 5 6 8 8 5 3 4 5 7 9 10 8 6 6 6 6 7 8 8 9 10 10 10 11 14 16 15 15 17 17 18 19 18 18 20 20 20 22 15 2 3 2 4 11 15 17 18 20 20 19 18 19 20 22 22 21 22 23 22 23
4 3 2 7 10 9 6 5 6 7 8 9 10 10 9 8 7 7 7 8 9 9 9 10 10 10 12 14 15 15 15 16 17 18 19 19 20 22 22 21 23 18 6 3 4 3 5 9 11 13 15 16 16 15 16 19 20 20 20 21 21 21 21
5 2 3 10 15 11 4 4 8 9 9 8 9 9 10 10 10 10 9 8 9 9 9 10 11 11 13 14 14 15 14 15 17 18 18 19 21 22 21 21 21 19 12 4 4 5 5 6 7 8 10 12 14 14 16 17 18 18 18 19 19 19 20
6 3 7 14 15 7 1 5 9 10 10 10 10 10 11 11 12 11 9 8 9 9 9 9 11 12 13 12 13 14 13 13 14 16 17 19 21 23 24 24 21 18 15 11 8 6 7 6 6 7 8 9 11 12 13 15 16 16 16 16 17 17 18
5 4 9 15 12 4 4 9 12 11 11 12 12 12 13 13 12 11 10 9 8 9 9 9 10 12 12 12 13 14 13 13 13 14 17 20 21 22 24 24 21 17 17 16 14 11 10 9 8 8 9 9 8 8 9 11 13 14 14 14 14 15 16
6 7 11 13 10 6 8 13 13 12 13 13 13 14 13 13 13 12 12 11 9 9 9 9 10 11 11 12 14 14 12 12 14 16 18 21 21 23 24 24 22 20 20 20 18 16 15 14 13 13 12 10 8 6 6 8 11 12 13 13 14 14 15
8 10 11 11 9 8 10 13 13 13 13 13 14 14 14 14 14 13 13 13 11 10 9 10 10 10 10 11 14 14 13 14 17 19 20 20 20 22 23 22 21 22 22 22 21 19 18 17 17 16 15 13 10 8 5 5 8 11 13 13 13 13 14
9 11 12 11 10 10 11 12 13 12 11 12 14 14 14 14 14 13 12 12 12 11 10 11 11 12 11 11 12 13 14 16 18 21 22 21 20 21 21 20 20 21 21 21 20 19 18 18 17 17 17 16 14 11 8 5 5 8 11 11 11 12 12
9 10 11 11 11 11 10 10 11 11 12 13 14 13 14 14 14 13 13 11 10 10 10 10 12 13 12 11 12 13 14 16 19 21 21 19 19 20 20 21 22 21 19 17 19 19 18 18 18 18 18 19 17 14 11 7 5 4 5 7 7 8 9
Wind_Direction
218 219 218 212 219 226 200 199 214 217 220 231 240 245 248 252 250 228 207 216 224 232 233 211 210 217 215 216 218 220 220 216 214 214 209 204 202 200 195 193 195 195 192 190 190 190 189 188 189 191 191 190 191 190 188 187 185 185 187 188 190 191 192
214 243 247 220 220 232 223 204 204 208 221 231 239 243 236 234 240 230 217 225 222 223 233 211 208 215 216 214 216 216 216 215 214 214 210 207 205 201 196 196 196 194 192 191 192 192 190 189 190 190 190 190 190 190 188 186 186 186 187 188 189 190 191
219 226 238 228 222 228 240 241 209 201 213 217 216 230 233 228 234 233 223 229 230 223 222 200 202 211 214 216 218 218 215 213 213 214 211 206 205 203 198 198 197 194 194 193 192 193 193 191 190 189 188 188 189 190 190 190 189 188 187 188 189 190 192
228 224 219 222 215 215 232 251 240 218 216 216 212 218 234 237 240 239 224 221 227 228 227 227 213 204 209 216 220 221 219 215 212 212 212 207 203 204 202 200 199 196 196 195 194 195 194 192 190 188 187 189 190 191 191 192 192 189 188 188 189 191 193
225 232 219 221 219 207 211 227 234 224 215 219 220 219 225 235 243 242 231 224 224 214 216 224 218 201 206 216 223 224 221 219 215 210 210 208 204 205 205 205 204 200 199 197 196 196 194 192 189 188 189 190 191 191 192 192 191 190 190 190 190 190 192
233 229 217 223 236 233 222 222 220 219 218 217 219 219 216 225 240 242 241 241 225 148 173 208 211 211 216 219 224 228 223 222 221 211 207 207 205 204 204 207 209 204 200 198 196 194 192 190 189 190 191 190 191 192 193 192 192 193 193 192 191 190 190
260 260 255 259 272 278 278 258 228 218 220 220 220 222 217 219 231 235 244 250 233 120 122 175 194 210 224 224 227 231 225 221 219 214 209 206 203 202 203 208 210 205 198 196 193 190 189 189 189 190 190 190 192 193 192 191 193 194 194 193 191 189 190
264 271 271 271 271 272 266 253 236 222 220 220 225 240 243 232 225 221 227 238 234 205 180 209 240 248 250 245 241 244 241 229 218 212 209 204 198 199 205 209 210 204 196 193 190 187 188 190 189 189 190 191 192 192 192 193 194 194 193 193 191 189 190
239 242 248 242 237 246 250 233 228 229 228 228 234 259 270 248 233 229 225 223 227 220 206 217 243 255 253 247 245 249 252 250 238 217 205 200 196 198 207 210 207 201 193 188 187 184 186 189 189 189 190 192 192 192 193 194 195 194 192 192 192 191 191
227 213 224 232 227 242 251 231 226 231 235 236 238 240 235 230 233 237 234 228 220 194 183 199 223 247 251 244 247 260 264 270 277 324 139 191 193 200 213 215 208 201 192 186 185 183 184 188 189 188 190 191 192 192 193 194 193 192 191 191 191 191 191
256 268 294 309 311 303 269 238 232 234 233 235 240 238 231 227 230 234 234 245 243 209 187 201 214 236 261 310 25 16 19 24 41 67 68 144 197 206 216 216 207 200 193 188 186 185 186 189 189 188 189 191 191 191 192 192 191 190 190 190 190 190 191
266 277 286 291 296 293 282 272 264 252 235 233 234 233 232 230 236 233 225 235 246 234 222 234 340 11 22 34 25 15 14 15 24 34 33 208 205 204 205 206 201 196 194 191 188 187 189 190 191 191 191 191 191 191 190 190 189 189 189 189 189 190 190
265 273 277 278 278 276 274 276 275 268 259 245 235 233 232 228 234 240 226 230 243 238 244 6 11 1 8 26 19 9 11 10 8 2 345 314 244 210 203 201 199 198 196 191 188 187 189 191 192 192 192 192 191 190 189 189 190 189 188 188 189 189 190
267 268 272 273 271 268 265 265 265 265 265 254 240 234 231 227 231 239 244 265 264 246 340 1 352 345 350 8 13 9 11 6 359 351 346 347 349 337 285 217 206 203 200 195 191 189 189 191 193 192 192 192 191 190 189 188 189 188 187 187 188 189 190
270 267 272 271 263 259 261 261 260 260 260 252 240 231 225 225 229 229 237 256 259 28 24 348 332 340 344 354 5 9 8 1 353 348 346 347 345 341 335 315 260 225 211 204 197 192 191 193 195 194 192 192 192 191 189 188 189 187 186 186 187 189 190
272 269 269 265 259 256 254 253 251 250 250 244 235 230 225 228 231 223 221 236 245 354 7 339 323 329 333 347 358 1 2 357 350 345 341 339 336 331 328 323 308 276 241 219 205 199 197 196 196 195 192 191 191 191 190 189 188 187 186 186 187 188 187
279 275 267 261 256 251 246 243 238 238 240 225 163 156 209 229 243 229 218 227 288 347 349 337 331 328 330 346 357 0 359 353 348 344 337 332 329 326 323 317 307 293 273 241 217 207 201 198 197 195 192 190 191 191 190 187 186 187 187 186 185 185 184
272 278 280 269 248 238 238 240 228 225 224 198 151 161 188 180 312 266 244 331 349 346 340 328 324 322 319 326 0 24 15 358 346 341 335 328 324 321 317 312 306 297 285 262 234 217 207 201 198 195 192 191 190 188 186 185 186 187 186 185 184 182 182
261 279 285 263 241 235 228 17 290 238 210 169 140 137 144 123 9 317 312 338 338 336 330 317 309 305 297 295 28 41 24 9 351 337 331 327 321 315 311 308 306 300 287 270 246 225 214 205 198 194 192 190 187 185 183 183 185 186 184 184 183 182 182
249 263 257 242 251 277 189 51 16 344 166 144 133 123 101 64 28 353 327 342 343 335 327 318 309 300 283 249 93 39 16 5 353 339 328 323 316 308 304 302 300 296 284 269 249 229 218 207 197 193 191 188 185 184 184 183 184 184 183 183 183 182 182
231 242 248 253 272 276 224 97 22 359 16 154 240 173 108 55 23 19 0 4 356 338 331 327 318 306 275 226 149 29 8 355 347 337 324 318 312 303 299 298 295 290 278 263 247 228 214 205 198 194 190 186 184 184 183 182 182 182 182 183 183 182 183
227 240 254 263 261 247 204 76 3 346 339 322 303 273 149 75 21 19 16 19 7 347 340 337 326 301 247 219 191 12 356 344 340 333 323 316 310 303 299 297 297 295 279 253 235 218 205 201 196 190 186 183 181 182 182 182 181 181 183 184 184 183 186
226 236 242 253 256 249 53 15 346 339 336 327 307 264 189 102 32 25 28 32 18 358 348 346 343 310 231 224 9 355 339 334 333 326 320 316 310 306 303 302 305 305 288 249 225 210 200 196 190 184 182 180 178 179 181 180 180 182 185 186 186 186 188
233 238 242 256 260 13 35 0 339 335 327 316 287 229 180 103 50 33 36 38 23 5 355 356 9 21 345 333 342 332 325 325 323 317 313 311 309 310 311 311 312 307 286 239 211 202 195 191 186 180 178 177 176 177 178 179 182 186 188 188 188 188 186
236 236 240 267 267 37 23 351 341 342 322 286 238 215 103 67 54 43 40 35 23 11 5 7 16 10 347 329 319 318 322 322 318 316 315 313 316 321 320 317 316 304 274 222 208 204 191 185 181 177 176 177 176 175 176 181 187 190 189 188 187 185 184
239 236 245 268 263 37 9 346 348 6 329 263 205 359 0 35 36 33 34 29 18 7 4 5 351 332 328 327 321 320 323 322 317 317 318 318 323 329 327 324 320 306 274 226 215 205 187 182 182 180 179 178 174 174 179 186 189 188 185 185 184 182 183
238 235 243 257 254 6 357 347 2 35 15 344 345 336 337 25 17 11 19 22 14 1 352 347 335 325 324 325 323 321 322 322 318 318 319 320 327 334 334 334 333 321 302 260 228 203 187 185 186 182 180 176 173 178 184 186 184 181 181 181 181 180 181
250 231 243 281 299 335 344 345 7 34 19 350 330 326 334 355 353 351 354 359 1 356 346 336 329 326 323 322 323 323 323 324 323 324 325 327 332 336 337 341 342 334 310 293 264 198 183 184 183 180 179 177 176 181 182 178 176 177 178 178 177 177 179
308 248 325 343 333 333 343 1 19 7 2 350 333 325 322 322 334 343 337 333 339 344 340 331 325 324 323 320 320 322 324 326 327 328 329 329 331 335 340 347 348 345 307 218 266 174 173 179 180 180 181 179 179 179 175 171 173 175 174 174 176 176 177
304 251 307 348 344 338 348 30 28 11 3 352 336 326 320 316 320 326 322 323 326 326 329 330 324 320 320 318 318 321 324 326 327 329 331 333 335 339 343 345 346 349 353 184 177 135 148 168 175 182 187 184 178 173 169 170 173 173 173 173 174 175 176
317 281 359 354 340 325 323 20 10 357 353 346 330 321 318 312 309 311 314 317 315 312 319 326 320 316 318 319 319 322 324 327 330 332 335 339 339 337 336 337 343 355 11 54 130 128 128 141 156 170 177 176 172 164 161 167 170 170 172 174 174 175 177
325 336 357 346 335 322 11 19 355 342 340 336 326 319 317 310 304 304 306 310 312 311 316 321 317 314 317 321 322 323 324 328 331 332 335 338 336 333 334 338 346 1 20 37 62 92 106 115 128 132 129 141 153 153 156 165 170 171 174 176 176 178 179
335 349 350 346 343 352 14 355 344 336 334 330 324 320 317 309 305 308 311 312 313 310 311 316 316 314 316 322 324 322 323 328 331 331 334 334 331 332 337 340 343 356 15 28 40 58 76 89 105 106 97 101 120 134 151 168 174 177 179 179 181 183 183
347 348 346 345 340 324 326 333 333 331 330 326 322 321 318 312 312 315 314 312 311 308 309 313 315 315 317 322 324 322 322 328 331 330 330 331 331 335 340 343 345 354 8 20 29 42 55 69 83 86 81 84 98 117 148 172 179 182 181 180 184 188 191
330 334 338 338 328 312 315 325 329 328 327 325 322 320 316 313 314 313 312 312 312 309 310 312 313 314 316 320 321 321 322 326 329 329 327 329 333 337 340 343 346 353 5 17 26 33 42 55 69 76 77 78 84 92 107 146 173 180 180 179 182 188 194
322 332 338 334 324 316 319 328 331 328 326 324 322 319 314 312 313 311 310 309 308 306 309 309 307 307 311 317 320 320 320 324 327 327 326 328 334 338 341 345 349 351 358 12 23 26 31 42 53 61 64 62 61 66 72 83 133 163 171 174 175 180 186
331 334 334 329 322 320 326 331 329 326 327 326 321 317 314 312 311 309 307 304 302 302 302 301 301 301 304 312 316 315 316 319 322 324 324 328 336 341 345 351 353 347 348 7 23 27 30 38 43 47 49 45 42 48 56 56 62 113 157 168 166 173 184